�N����,����,�~����,�C��,���x,�C��,����,���ϕ���,�ő�u�ԕ���,�ő厞����,���˗�,�I�_���x,�n�����x,�ő啗���N��,DTYPE
"17/11/10","00:10",0.0,7.2,91.8,1017.3,314.4,2.5,3.5,331.1,0.00,6.0,12.4,"00:01:36",1
"17/11/10","00:20",0.0,7.1,91.4,1017.3,306.5,2.1,3.5,327.7,0.00,5.8,12.2,"00:19:04",1
"17/11/10","00:30",0.0,7.3,90.8,1017.1,319.9,3.0,4.5,328.7,0.00,5.9,12.3,"00:27:52",1
"17/11/10","00:40",0.0,7.3,90.6,1017.1,325.6,2.6,4.2,355.5,0.00,5.9,12.5,"00:33:28",1
"17/11/10","00:50",0.0,7.0,90.2,1017.3,325.6,1.3,3.3,346.1,0.00,5.5,12.2,"00:40:16",1
"17/11/10","01:00",0.0,6.8,92.5,1017.3,288.2,1.7,2.5,313.5,0.00,5.7,12.4,"00:58:32",1
"17/11/10","01:10",0.0,6.4,91.0,1017.1,306.6,1.7,2.6,323.0,0.00,5.1,12.2,"01:07:36",1
"17/11/10","01:20",0.0,5.9,94.2,1017.5,281.6,1.0,2.4,314.2,0.00,5.1,12.2,"01:10:08",1
"17/11/10","01:30",0.0,5.8,95.0,1017.1,314.5,2.0,2.9,322.6,0.00,5.1,12.0,"01:25:12",1
"17/11/10","01:40",0.0,5.5,95.5,1017.1,287.5,0.7,1.7,272.1,0.00,4.9,12.0,"01:30:02",1
"17/11/10","01:50",0.0,5.4,96.3,1017.1,300.7,1.7,2.1,309.8,0.00,4.9,11.9,"01:42:48",1
"17/11/10","02:00",0.0,5.2,96.2,1017.1,302.0,1.1,2.1,314.8,0.00,4.7,12.0,"01:53:12",1
"17/11/10","02:10",0.0,4.9,97.2,1016.8,316.3,1.5,2.5,320.8,0.00,4.5,12.0,"02:03:52",1
"17/11/10","02:20",0.0,4.9,97.2,1016.8,328.2,1.3,2.7,310.4,0.00,4.5,11.7,"02:18:32",1
"17/11/10","02:30",0.0,4.7,96.9,1016.8,304.7,1.3,2.2,328.5,0.00,4.3,11.7,"02:20:08",1
"17/11/10","02:40",0.0,4.5,97.6,1016.8,307.6,1.5,2.6,322.1,0.00,4.2,11.8,"02:31:12",1
"17/11/10","02:50",0.0,4.3,98.5,1016.8,280.5,1.3,2.1,309.8,0.00,4.1,11.6,"02:49:44",1
"17/11/10","03:00",0.0,5.0,98.7,1016.6,309.7,2.0,2.7,314.8,0.00,4.9,11.8,"02:51:36",1
"17/11/10","03:10",0.0,5.5,97.9,1016.4,311.3,2.0,3.2,317.8,0.00,5.2,11.8,"03:06:16",1
"17/11/10","03:20",0.0,5.0,97.0,1016.4,324.0,1.7,2.8,315.6,0.00,4.6,11.6,"03:18:16",1
"17/11/10","03:30",0.0,4.4,97.4,1016.4,300.1,1.3,3.5,320.6,0.00,4.1,11.7,"03:21:44",1
"17/11/10","03:40",0.0,5.0,99.4,1016.6,304.4,2.1,3.5,317.3,0.00,5.0,11.6,"03:39:44",1
"17/11/10","03:50",0.0,5.5,97.1,1016.1,309.4,2.6,4.1,326.3,0.00,5.1,11.6,"03:41:12",1
"17/11/10","04:00",0.0,5.4,98.0,1016.4,306.2,2.2,3.9,316.2,0.00,5.1,11.3,"03:58:00",1
"17/11/10","04:10",0.0,5.7,96.8,1016.8,320.4,2.3,3.7,326.5,0.00,5.3,11.6,"04:00:32",1
"17/11/10","04:20",0.0,6.0,97.0,1016.4,328.9,2.7,4.3,336.5,0.00,5.6,11.4,"04:13:44",1
"17/11/10","04:30",0.0,6.3,96.0,1016.6,326.1,2.6,4.7,332.5,0.00,5.7,11.2,"04:21:44",1
"17/11/10","04:40",0.0,6.5,94.2,1016.6,324.3,2.5,3.9,330.7,0.00,5.7,11.4,"04:32:32",1
"17/11/10","04:50",0.0,6.2,93.4,1016.8,321.7,2.1,3.5,334.4,0.00,5.3,11.4,"04:43:20",1
"17/11/10","05:00",0.0,5.9,94.0,1016.8,319.7,1.6,2.9,320.0,0.00,5.0,11.4,"04:54:08",1
"17/11/10","05:10",0.0,5.4,94.2,1016.8,319.1,1.3,2.6,335.1,0.00,4.6,11.1,"05:01:36",1
"17/11/10","05:20",0.0,4.6,94.5,1016.8,288.7,1.1,1.8,316.0,0.00,3.8,11.4,"05:12:48",1
"17/11/10","05:30",0.0,4.3,96.1,1016.6,309.0,1.5,2.4,321.2,0.00,3.8,11.2,"05:24:56",1
"17/11/10","05:40",0.0,4.2,97.5,1016.6,297.0,1.7,2.6,320.7,0.00,3.9,11.2,"05:35:04",1
"17/11/10","05:50",0.2,3.9,97.5,1016.4,303.6,1.2,2.1,307.0,0.00,3.6,11.3,"05:48:32",1
"17/11/10","06:00",0.0,3.8,98.6,1016.4,299.9,1.6,2.7,310.0,0.00,3.6,11.1,"05:50:16",1
"17/11/10","06:10",0.0,3.9,98.3,1016.4,297.2,1.5,2.6,314.7,0.00,3.7,11.0,"06:05:12",1
"17/11/10","06:20",0.0,3.9,97.6,1015.9,305.7,1.7,2.4,319.3,0.00,3.6,10.9,"06:12:40",1
"17/11/10","06:30",0.0,3.8,99.7,1015.9,288.9,1.7,2.2,307.5,0.00,3.8,11.0,"06:20:48",1
"17/11/10","06:40",0.0,4.5,98.5,1015.9,330.7,1.0,1.9,304.3,0.00,4.3,10.9,"06:38:08",1
"17/11/10","06:50",0.0,4.3,97.6,1015.9,295.8,1.5,1.9,297.1,0.00,4.0,10.9,"06:44:00",1
"17/11/10","07:00",0.0,4.2,99.8,1016.4,290.4,1.3,2.0,321.2,0.00,4.2,11.0,"06:59:44",1
"17/11/10","07:10",0.0,5.2,98.3,1016.4,319.9,1.7,2.5,319.9,0.00,5.0,10.9,"07:02:08",1
"17/11/10","07:20",0.0,5.5,98.1,1016.1,299.5,1.5,2.2,331.2,0.00,5.3,10.8,"07:11:36",1
"17/11/10","07:30",0.0,6.3,97.7,1016.8,269.5,1.2,1.8,259.8,0.01,6.0,10.9,"07:25:20",1
"17/11/10","07:40",0.0,6.8,95.4,1016.8,298.2,1.0,1.7,311.7,0.02,6.2,10.9,"07:30:02",1
"17/11/10","07:50",0.0,7.4,93.5,1016.8,306.9,1.2,1.9,323.8,0.02,6.5,11.0,"07:41:28",1
"17/11/10","08:00",0.0,7.8,91.4,1016.8,268.9,0.7,1.1,259.3,0.04,6.5,11.0,"07:53:36",1
"17/11/10","08:10",0.0,8.3,89.0,1017.3,272.1,0.7,1.0,285.1,0.05,6.6,11.0,"08:04:32",1
"17/11/10","08:20",0.0,8.6,89.0,1017.1,206.2,0.3,0.8,148.5,0.08,6.9,11.1,"08:18:24",1
"17/11/10","08:30",0.0,9.1,86.9,1017.5,249.3,0.7,1.3,240.4,0.11,7.1,11.3,"08:23:12",1
"17/11/10","08:40",0.0,9.7,84.6,1017.5,256.5,0.5,1.2,253.5,0.15,7.3,11.3,"08:30:40",1
"17/11/10","08:50",0.0,9.8,82.2,1017.1,306.1,0.6,1.2,244.2,0.18,7.0,11.5,"08:41:52",1
"17/11/10","09:00",0.0,10.2,81.6,1017.5,224.0,0.5,1.1,220.6,0.21,7.2,11.6,"08:53:20",1
"17/11/10","09:10",0.0,10.7,79.6,1017.5,272.3,0.7,1.3,258.2,0.23,7.4,11.7,"09:05:52",1
"17/11/10","09:20",0.0,11.1,78.6,1017.1,257.0,0.8,1.4,235.4,0.25,7.6,12.0,"09:17:36",1
"17/11/10","09:30",0.0,11.4,76.5,1017.3,257.2,0.6,1.1,255.3,0.27,7.5,12.0,"09:22:32",1
"17/11/10","09:40",0.0,12.1,72.4,1017.3,238.4,0.5,1.9,238.5,0.30,7.3,12.4,"09:39:44",1
"17/11/10","09:50",0.0,12.5,73.1,1017.5,234.2,0.8,1.9,192.5,0.31,7.9,12.5,"09:49:36",1
"17/11/10","10:00",0.0,12.9,67.8,1016.8,195.1,0.6,1.7,111.5,0.33,7.1,12.6,"09:55:04",1
"17/11/10","10:10",0.0,13.1,68.5,1017.1,224.6,1.0,2.0,223.4,0.35,7.5,12.8,"10:04:08",1
"17/11/10","10:20",0.0,13.6,67.8,1016.8,221.4,0.7,1.9,213.0,0.37,7.8,13.1,"10:10:40",1
"17/11/10","10:30",0.0,14.3,66.3,1016.6,227.7,1.1,2.2,236.2,0.38,8.1,13.2,"10:28:56",1
"17/11/10","10:40",0.0,14.0,65.0,1016.4,198.2,1.3,2.7,196.7,0.39,7.6,13.5,"10:36:56",1
"17/11/10","10:50",0.0,14.5,64.7,1016.4,220.1,1.1,2.4,213.8,0.40,8.0,13.7,"10:41:04",1
"17/11/10","11:00",0.0,14.4,60.0,1016.1,277.0,1.0,2.4,325.2,0.41,6.8,13.9,"10:58:24",1
"17/11/10","11:10",0.0,15.4,61.6,1015.2,247.9,1.0,2.4,111.1,0.41,8.1,14.1,"11:00:02",1
"17/11/10","11:20",0.0,15.2,61.2,1014.7,203.4,1.1,2.2,112.0,0.42,7.8,14.3,"11:10:08",1
"17/11/10","11:30",0.0,15.3,60.5,1014.9,230.9,1.1,2.1,208.7,0.42,7.8,14.4,"11:20:32",1
"17/11/10","11:40",0.0,15.4,60.0,1014.5,208.5,1.5,4.0,211.5,0.43,7.7,14.5,"11:36:40",1
"17/11/10","11:50",0.0,15.4,60.6,1014.5,216.8,1.5,3.1,211.8,0.43,7.9,14.8,"11:47:28",1
"17/11/10","12:00",0.0,15.7,58.7,1014.2,206.8,1.1,2.1,211.9,0.43,7.7,15.0,"11:50:32",1
"17/11/10","12:10",0.0,16.2,56.3,1014.0,292.5,0.7,1.7,24.6,0.42,7.5,15.0,"12:00:02",1
"17/11/10","12:20",0.0,16.2,55.6,1013.8,15.3,0.8,2.0,144.7,0.41,7.4,15.3,"12:19:28",1
"17/11/10","12:30",0.0,16.2,52.2,1013.3,74.6,1.0,2.2,75.7,0.41,6.4,15.5,"12:22:40",1
"17/11/10","12:40",0.0,16.6,51.9,1013.0,256.8,0.6,2.4,322.6,0.40,6.7,15.6,"12:39:28",1
"17/11/10","12:50",0.0,17.4,50.9,1012.8,339.5,0.8,2.2,321.2,0.40,7.2,15.6,"12:44:48",1
"17/11/10","13:00",0.0,17.4,50.3,1012.3,99.8,0.8,2.0,119.7,0.38,7.0,16.1,"12:53:12",1
"17/11/10","13:10",0.0,17.3,51.1,1012.8,220.9,1.0,3.3,221.1,0.38,7.1,16.0,"13:05:12",1
"17/11/10","13:20",0.0,17.7,51.2,1012.6,202.7,1.2,2.8,231.9,0.36,7.5,16.0,"13:19:44",1
"17/11/10","13:30",0.0,17.3,52.0,1012.6,198.4,1.6,3.1,209.2,0.35,7.4,16.2,"13:20:16",1
"17/11/10","13:40",0.0,17.4,53.9,1012.6,171.7,1.2,2.8,156.7,0.33,8.0,16.3,"13:39:36",1
"17/11/10","13:50",0.0,17.9,53.8,1012.1,180.7,1.1,2.2,167.8,0.32,8.5,16.5,"13:44:48",1
"17/11/10","14:00",0.0,17.9,53.6,1012.1,206.0,1.5,3.6,194.7,0.30,8.4,16.6,"13:56:32",1
"17/11/10","14:10",0.0,18.3,56.0,1011.9,175.0,1.1,2.7,121.0,0.28,9.4,16.4,"14:01:20",1
"17/11/10","14:20",0.0,18.1,52.9,1011.4,209.4,1.1,2.7,207.1,0.26,8.4,16.7,"14:11:52",1
"17/11/10","14:30",0.0,18.0,53.4,1011.4,148.7,1.2,2.4,164.3,0.24,8.4,16.7,"14:27:44",1
"17/11/10","14:40",0.0,18.4,56.0,1011.6,188.5,0.8,2.6,201.4,0.22,9.5,16.7,"14:33:52",1
"17/11/10","14:50",0.0,18.2,53.0,1011.4,113.0,1.0,2.1,148.1,0.19,8.5,16.6,"14:47:04",1
"17/11/10","15:00",0.0,18.1,54.0,1011.4,199.0,0.7,1.3,140.2,0.17,8.7,16.7,"14:50:16",1
"17/11/10","15:10",0.0,18.1,54.9,1011.4,215.7,1.3,4.4,230.3,0.15,8.9,16.5,"15:01:52",1
"17/11/10","15:20",0.0,17.8,55.0,1011.4,215.0,1.2,2.8,226.0,0.12,8.7,16.8,"15:11:28",1
"17/11/10","15:30",0.0,17.8,56.0,1010.9,219.7,0.8,2.0,228.8,0.10,9.0,16.6,"15:20:48",1
"17/11/10","15:40",0.0,17.7,55.6,1010.9,235.1,1.1,2.6,234.0,0.08,8.8,16.5,"15:30:02",1
"17/11/10","15:50",0.0,17.8,55.5,1010.9,244.4,1.1,2.4,232.4,0.06,8.8,16.4,"15:40:08",1
"17/11/10","16:00",0.0,17.6,57.8,1011.2,253.5,0.8,1.7,235.1,0.04,9.2,16.4,"15:50:32",1
"17/11/10","16:10",0.0,17.3,57.7,1010.9,286.1,0.8,1.4,315.5,0.03,8.9,16.1,"16:07:28",1
"17/11/10","16:20",0.0,16.8,61.2,1010.9,295.1,1.1,1.6,308.1,0.01,9.3,16.1,"16:13:28",1
"17/11/10","16:30",0.0,15.7,65.8,1010.4,296.2,1.0,1.4,334.4,0.00,9.4,16.2,"16:26:40",1
"17/11/10","16:40",0.0,14.9,69.2,1010.4,286.3,1.0,1.8,305.0,0.00,9.4,16.1,"16:39:44",1
"17/11/10","16:50",0.0,14.2,72.2,1010.7,300.0,0.7,1.3,271.1,0.00,9.3,15.7,"16:49:28",1
"17/11/10","17:00",0.0,13.6,74.4,1010.7,290.6,1.1,1.7,323.9,0.00,9.2,15.8,"16:50:48",1
"17/11/10","17:10",0.0,13.0,77.4,1010.9,281.9,1.0,1.6,286.5,0.00,9.2,15.6,"17:04:36",1
"17/11/10","17:20",0.0,12.6,79.2,1010.9,283.8,1.3,1.9,269.6,0.00,9.1,15.6,"17:12:22",1
"17/11/10","17:30",0.0,12.4,80.7,1011.2,303.4,1.6,2.9,322.4,0.00,9.2,15.3,"17:28:24",1
"17/11/10","17:40",0.0,12.4,80.2,1010.7,301.6,1.8,3.2,319.9,0.00,9.1,15.3,"17:30:34",1
"17/11/10","17:50",0.0,12.4,80.6,1010.9,308.4,2.0,3.3,332.0,0.00,9.2,15.3,"17:47:42",1
"17/11/10","18:00",0.0,12.1,81.6,1010.2,289.7,1.6,2.6,288.3,0.00,9.1,15.1,"17:56:48",1
"17/11/10","18:10",0.0,11.8,82.7,1010.2,284.0,1.0,1.4,251.0,0.00,9.0,15.1,"18:09:46",1
"17/11/10","18:20",0.0,11.4,83.6,1010.4,299.7,1.3,2.5,322.2,0.00,8.8,14.7,"18:19:02",1
"17/11/10","18:30",0.0,11.0,86.2,1010.2,322.7,1.7,2.5,324.6,0.00,8.8,14.7,"18:24:04",1
"17/11/10","18:40",0.0,10.7,87.4,1010.7,297.1,1.1,1.8,310.3,0.00,8.7,14.8,"18:36:04",1
"17/11/10","18:50",0.0,10.8,87.8,1010.2,298.3,1.3,2.4,324.9,0.00,8.9,14.6,"18:41:12",1
"17/11/10","19:00",0.0,10.5,87.0,1010.0,299.3,1.2,1.7,318.8,0.00,8.5,14.3,"18:50:24",1
"17/11/10","19:10",0.0,10.1,89.2,1010.2,297.3,1.1,1.6,311.9,0.00,8.4,14.4,"19:07:26",1
"17/11/10","19:20",0.0,9.7,89.6,1009.7,300.7,1.1,1.6,316.4,0.00,8.1,14.3,"19:17:48",1
"17/11/10","19:30",0.0,9.2,90.5,1009.5,298.6,1.3,2.0,324.0,0.00,7.8,14.1,"19:26:42",1
"17/11/10","19:40",0.0,9.4,93.1,1009.7,326.7,1.5,2.1,318.3,0.00,8.4,14.0,"19:35:28",1
"17/11/10","19:50",0.0,9.4,94.0,1009.7,289.1,1.5,2.0,262.4,0.00,8.5,14.0,"19:48:40",1
"17/11/10","20:00",0.0,9.8,92.1,1009.5,283.1,1.1,1.7,274.3,0.00,8.6,13.9,"19:51:06",1
"17/11/10","20:10",0.0,9.5,90.2,1010.0,320.2,1.6,2.0,324.5,0.00,8.0,13.9,"20:05:02",1
"17/11/10","20:20",0.0,8.9,92.8,1010.0,308.1,1.7,2.2,315.6,0.00,7.8,13.7,"20:12:32",1
"17/11/10","20:30",0.0,8.9,94.7,1010.0,286.7,1.3,1.6,304.3,0.00,8.1,13.7,"20:20:08",1
"17/11/10","20:40",0.0,9.2,94.2,1010.2,291.0,1.5,1.9,315.7,0.00,8.4,13.6,"20:38:12",1
"17/11/10","20:50",0.0,9.2,93.5,1010.0,298.0,1.2,2.1,319.6,0.00,8.2,13.5,"20:40:24",1
"17/11/10","21:00",0.0,9.2,94.2,1009.7,295.7,1.2,2.1,322.5,0.00,8.4,13.5,"20:56:54",1
"17/11/10","21:10",0.0,9.3,93.4,1009.7,328.1,1.8,2.5,337.6,0.00,8.3,13.5,"21:03:04",1
"17/11/10","21:20",0.0,9.2,94.2,1009.5,289.3,0.8,1.7,305.3,0.00,8.4,13.4,"21:10:08",1
"17/11/10","21:30",0.0,9.2,94.7,1009.5,307.2,1.1,2.0,327.5,0.00,8.4,13.3,"21:28:28",1
"17/11/10","21:40",0.0,9.1,94.6,1009.3,305.6,1.5,2.4,317.0,0.00,8.3,13.5,"21:32:08",1
"17/11/10","21:50",0.0,9.1,95.4,1009.5,312.5,1.5,2.2,324.8,0.00,8.4,13.4,"21:47:20",1
"17/11/10","22:00",0.0,9.2,96.0,1009.0,299.4,1.3,1.9,323.7,0.00,8.6,13.2,"21:50:48",1
"17/11/10","22:10",0.0,9.3,95.5,1008.6,297.9,1.3,2.5,316.9,0.00,8.7,13.2,"22:01:20",1
"17/11/10","22:20",0.0,9.5,95.3,1008.3,304.9,1.7,2.7,324.6,0.00,8.8,13.5,"22:18:00",1
"17/11/10","22:30",0.0,9.7,94.5,1008.3,287.3,1.1,1.7,313.4,0.00,8.9,13.3,"22:29:54",1
"17/11/10","22:40",0.0,10.1,93.5,1008.1,320.0,1.2,2.0,325.6,0.00,9.1,13.2,"22:39:52",1
"17/11/10","22:50",0.0,10.1,92.5,1007.8,309.0,1.6,2.0,318.2,0.00,9.0,13.3,"22:41:20",1
"17/11/10","23:00",0.0,10.0,93.5,1007.6,318.3,0.6,1.4,317.9,0.00,9.0,13.2,"22:50:16",1
"17/11/10","23:10",0.0,10.0,93.9,1007.4,297.8,1.5,1.9,313.1,0.00,9.1,13.3,"23:04:08",1
"17/11/10","23:20",0.0,10.0,94.0,1007.1,290.5,0.6,1.6,311.1,0.00,9.1,13.3,"23:19:56",1
"17/11/10","23:30",0.0,10.0,94.6,1007.1,317.2,1.3,2.1,322.7,0.00,9.2,13.2,"23:22:16",1
"17/11/10","23:40",0.0,10.1,94.5,1007.1,326.1,1.6,2.6,317.5,0.00,9.3,13.1,"23:35:20",1
"17/11/10","23:50",0.0,10.0,94.5,1006.7,305.9,1.2,1.9,329.3,0.00,9.2,13.2,"23:40:32",1
"17/11/10","24:00",0.0,10.0,95.2,1006.7,288.0,1.0,1.9,325.9,0.00,9.3,13.2,"23:52:32",1
